Temp
15 15 15 15 15 15 15 14 15 15 14 14 14 13 13 13 14 14 13 13 13 13 13 13 13 13 13 13 14 13 13 13 13
15 15 15 15 14 14 14 14 15 15 14 14 14 13 13 13 14 14 13 13 13 13 13 13 13 13 13 13 13 13 13 13 13
16 15 15 15 14 14 14 15 15 15 14 14 14 13 13 13 13 13 13 13 13 13 14 14 13 13 13 13 13 13 13 13 13
17 16 15 15 15 15 15 15 15 15 14 14 14 13 13 13 13 12 13 13 13 14 14 13 13 13 13 14 13 13 13 12 12
17 16 16 16 15 15 15 15 15 15 14 14 14 13 13 12 13 12 12 12 13 13 14 13 13 13 13 13 13 13 13 13 13
17 16 16 16 15 15 16 15 15 15 14 14 14 13 12 12 12 12 12 12 13 13 13 13 13 13 13 13 13 13 13 13 13
17 17 16 16 16 16 16 16 15 15 14 14 14 13 12 12 12 12 12 13 13 13 13 13 12 12 12 12 12 12 12 12 12
15 16 16 16 16 16 16 15 15 14 15 14 13 12 12 12 12 12 13 13 12 12 12 12 12 12 12 12 12 12 12 12 12
15 16 16 16 16 16 15 14 14 14 12 12 12 12 13 12 12 12 13 13 13 12 12 12 12 12 12 12 12 12 12 12 12
15 16 15 15 15 14 14 13 13 13 13 13 12 12 13 12 12 12 12 13 13 12 12 12 12 12 12 12 12 11 12 12 11
14 14 14 14 13 13 13 13 12 12 13 12 13 12 12 12 12 12 12 13 13 12 12 12 12 12 11 12 11 11 11 11 11
14 14 13 13 13 13 13 13 13 12 12 12 12 12 12 12 12 13 12 13 13 13 12 12 12 11 12 12 12 12 12 11 11
14 14 14 13 13 13 13 13 12 12 12 12 12 12 12 12 12 11 12 13 13 13 12 12 12 12 11 12 12 12 12 12 12
14 14 14 14 13 13 13 13 12 12 12 12 12 12 12 12 12 11 11 12 13 13 12 12 12 12 11 11 12 12 12 12 11
14 14 14 14 13 13 13 13 12 12 12 11 11 11 11 12 11 11 12 11 12 13 12 12 12 12 12 12 11 11 11 11 11
16 15 14 14 13 13 13 13 12 12 11 11 11 11 11 11 11 11 11 11 11 11 12 12 12 11 11 11 11 11 10 10 10
14 15 15 15 13 13 12 13 13 12 11 11 11 10 10 11 11 11 11 11 12 11 11 12 11 10 10 10 10 11 10 9 9
14 14 13 14 13 12 12 12 14 13 11 11 11 10 10 12 12 11 11 11 11 11 11 11 11 10 10 9 10 10 9 8 8
14 14 13 13 13 12 12 12 12 12 12 11 11 11 11 11 11 11 11 10 10 10 10 9 9 8 9 9 8 9 9 8 8
13 13 13 12 12 12 12 12 11 12 11 11 12 11 11 10 12 12 12 11 10 9 9 8 8 8 7 7 8 8 8 7 7
Height
1554 1555 1556 1558 1559 1561 1562 1563 1563 1563 1564 1565 1566 1568 1569 1569 1571 1570 1570 1571 1570 1569 1569 1569 1570 1569 1569 1569 1568 1568 1569 1569 1569
1554 1555 1557 1558 1560 1562 1563 1564 1564 1564 1565 1567 1568 1569 1570 1572 1572 1573 1572 1571 1571 1571 1571 1571 1571 1571 1571 1570 1571 1571 1571 1571 1571
1554 1556 1558 1559 1561 1562 1563 1564 1565 1566 1567 1568 1569 1571 1572 1573 1573 1573 1573 1572 1572 1572 1571 1571 1571 1571 1571 1571 1571 1572 1571 1572 1572
1555 1556 1558 1559 1561 1562 1563 1564 1565 1566 1567 1568 1570 1571 1573 1574 1573 1573 1573 1572 1572 1571 1571 1570 1570 1569 1570 1570 1571 1571 1572 1572 1572
1555 1556 1558 1560 1561 1562 1563 1565 1566 1567 1568 1568 1570 1572 1573 1574 1572 1573 1573 1572 1572 1571 1570 1570 1569 1569 1568 1569 1569 1569 1570 1570 1571
1555 1556 1557 1559 1561 1562 1563 1565 1565 1567 1568 1569 1570 1571 1573 1574 1571 1572 1573 1572 1571 1571 1570 1569 1568 1568 1568 1567 1567 1567 1569 1568 1569
1554 1556 1557 1558 1560 1561 1563 1563 1565 1565 1567 1568 1569 1571 1572 1574 1571 1571 1571 1571 1571 1570 1570 1569 1568 1567 1568 1567 1567 1568 1568 1568 1568
1553 1555 1556 1558 1559 1560 1562 1563 1564 1564 1564 1567 1569 1569 1571 1572 1570 1571 1570 1570 1570 1570 1569 1569 1568 1568 1567 1567 1567 1567 1567 1568 1568
1551 1552 1554 1555 1557 1558 1560 1562 1563 1564 1565 1566 1567 1567 1568 1570 1568 1568 1569 1568 1568 1568 1568 1568 1567 1568 1567 1568 1568 1567 1567 1567 1568
1550 1550 1551 1553 1554 1556 1557 1559 1561 1562 1564 1565 1566 1566 1565 1567 1565 1565 1566 1566 1566 1566 1566 1566 1565 1566 1566 1567 1567 1567 1566 1566 1567
1548 1550 1550 1552 1553 1554 1556 1558 1559 1560 1561 1562 1563 1564 1564 1564 1563 1561 1562 1563 1563 1564 1564 1564 1564 1564 1564 1565 1565 1566 1565 1565 1566
1547 1548 1550 1551 1553 1554 1555 1556 1556 1557 1557 1558 1559 1561 1561 1561 1561 1559 1558 1560 1561 1561 1561 1561 1561 1562 1562 1562 1563 1563 1563 1563 1564
1544 1544 1546 1548 1549 1550 1552 1553 1554 1554 1554 1555 1556 1557 1558 1557 1558 1557 1556 1555 1557 1557 1558 1558 1558 1559 1559 1560 1560 1561 1561 1561 1561
1540 1541 1542 1544 1546 1546 1547 1549 1550 1551 1551 1551 1552 1553 1553 1554 1554 1554 1553 1552 1552 1554 1554 1554 1555 1555 1556 1556 1557 1557 1558 1558 1558
1535 1536 1538 1539 1541 1542 1542 1543 1544 1545 1546 1547 1549 1548 1549 1549 1549 1549 1550 1549 1548 1549 1550 1551 1551 1552 1552 1553 1554 1554 1554 1555 1555
1531 1530 1532 1533 1534 1535 1536 1537 1539 1539 1541 1543 1544 1544 1543 1543 1544 1544 1545 1544 1544 1544 1545 1546 1547 1548 1548 1549 1549 1550 1550 1550 1552
1525 1526 1526 1527 1528 1530 1530 1531 1530 1532 1534 1535 1538 1538 1538 1536 1537 1538 1538 1538 1539 1540 1540 1541 1542 1543 1544 1545 1545 1545 1546 1547 1548
1520 1521 1521 1522 1523 1524 1525 1525 1523 1523 1525 1527 1529 1531 1527 1528 1529 1529 1531 1532 1532 1533 1534 1534 1535 1537 1538 1539 1540 1541 1542 1542 1543
1513 1515 1515 1517 1516 1517 1518 1519 1518 1519 1517 1519 1519 1521 1521 1521 1522 1522 1522 1523 1524 1525 1527 1528 1529 1530 1531 1532 1535 1536 1536 1537 1537
1505 1506 1507 1509 1509 1509 1511 1512 1511 1511 1511 1510 1511 1513 1516 1517 1515 1514 1515 1516 1516 1518 1520 1523 1525 1526 1525 1526 1528 1530 1531 1532 1532
Wind_Speed
11 9 12 11 10 8 3 4 7 8 10 11 12 15 18 13 7 7 7 6 15 14 12 13 14 16 15 15 14 7 8 7 6
10 9 10 9 10 6 3 3 5 7 8 9 10 14 17 11 5 5 6 11 10 11 11 8 7 8 7 7 9 12 9 9 9
7 8 8 8 9 6 3 1 4 6 6 7 10 15 15 11 4 2 3 1 1 4 2 2 1 2 3 5 4 2 3 4 8
7 8 8 8 8 6 4 2 4 5 5 5 8 12 14 8 2 1 2 1 2 4 4 1 1 3 4 5 2 2 3 3 4
7 8 8 7 7 6 4 4 4 3 3 4 7 13 10 5 5 4 6 6 6 6 4 3 3 4 3 2 2 2 3 4 5
7 9 8 7 7 7 6 6 4 2 2 4 7 11 8 5 7 8 7 6 7 6 5 5 4 3 2 1 1 0 1 1 3
8 7 8 10 10 10 8 8 6 4 4 4 6 7 8 8 10 10 8 7 7 5 6 4 3 3 2 2 2 2 2 1 1
9 9 10 11 11 11 10 9 8 6 5 5 7 7 8 8 13 11 8 7 6 6 5 5 3 2 2 1 1 2 2 2 2
11 12 11 13 13 12 11 9 9 11 12 10 6 10 10 11 13 12 9 9 7 6 6 5 3 2 2 1 1 1 1 1 1
14 13 12 12 13 8 11 7 8 10 12 12 11 13 10 12 15 14 12 9 9 8 7 5 5 4 3 2 1 1 0 0 1
17 14 15 13 12 13 10 13 16 17 14 14 15 15 12 12 15 15 13 11 10 10 9 7 6 5 4 4 3 2 1 0 1
20 18 19 20 18 20 18 20 19 19 17 18 18 18 16 16 16 17 16 14 10 11 11 9 8 7 6 6 5 4 3 2 2
24 23 22 21 20 20 23 22 21 21 21 22 20 20 19 18 17 17 20 17 14 12 12 12 11 10 9 9 7 7 5 4 4
24 26 26 24 24 23 23 24 25 26 25 25 22 22 22 21 19 20 20 21 18 15 14 13 14 13 12 13 10 10 8 7 7
26 27 28 28 28 28 29 28 27 28 27 25 22 25 24 23 23 23 22 23 23 20 18 16 16 16 16 16 14 13 11 10 10
29 31 30 30 30 32 33 33 30 31 28 23 25 26 28 27 27 25 25 26 26 24 24 20 20 20 20 19 18 16 16 14 13
30 33 34 34 34 34 35 35 35 33 32 31 27 25 29 32 31 30 29 29 28 27 27 27 24 23 23 22 22 20 19 17 16
31 32 33 35 34 34 37 37 39 36 37 36 30 14 17 20 29 35 34 33 33 31 29 30 28 27 26 25 23 22 21 20 20
29 32 36 35 34 35 35 36 40 38 40 38 41 35 16 14 13 24 31 35 36 35 33 32 30 30 31 28 26 25 25 23 23
31 33 28 37 35 37 37 38 38 40 43 44 43 43 40 24 25 25 26 31 35 37 37 33 32 32 34 32 30 28 29 25 25
Wind_Direction
124 121 124 129 123 133 119 35 45 84 94 95 96 98 92 84 77 75 93 96 77 88 88 76 87 79 83 72 64 100 71 71 81
144 133 128 134 134 153 179 40 67 94 98 95 98 102 95 81 75 75 80 103 101 98 102 97 100 100 93 69 49 76 82 73 92
157 161 157 152 164 180 195 84 105 106 104 101 101 111 101 95 87 98 222 204 351 304 294 275 171 203 289 314 338 81 107 103 108
168 180 181 184 182 190 185 156 134 124 120 117 115 121 112 111 196 119 316 271 322 329 344 5 274 276 286 293 296 271 250 239 234
182 184 190 192 189 195 196 178 155 139 133 130 132 134 125 140 205 255 288 279 301 316 331 325 316 310 310 314 306 271 255 251 255
197 192 188 195 204 213 206 185 182 179 166 145 140 141 119 97 233 261 284 277 290 304 318 332 334 336 333 354 28 112 222 226 249
207 205 207 202 206 208 199 195 199 199 183 171 158 151 145 194 232 253 270 285 287 300 318 323 327 338 342 15 43 65 71 73 86
235 216 215 219 217 214 210 209 209 207 198 178 182 172 188 207 242 252 271 275 280 301 310 311 315 319 332 11 54 75 84 80 79
243 236 227 226 226 231 217 227 226 215 189 227 192 231 214 196 245 255 263 267 268 283 293 293 296 293 296 306 352 56 84 41 23
249 243 244 233 230 229 229 249 260 241 225 215 214 240 230 211 237 250 263 265 261 266 279 272 268 263 243 234 252 250 207 44 12
250 236 238 244 223 241 217 223 230 247 239 227 229 232 237 229 233 252 257 266 256 254 265 266 258 250 235 220 247 231 211 177 339
244 240 234 236 229 219 220 227 235 237 239 237 235 229 233 234 234 251 253 260 253 254 257 253 250 246 237 232 222 226 230 228 282
233 239 236 238 245 238 225 226 228 234 236 240 239 235 235 238 240 235 255 256 258 256 253 253 247 241 244 243 235 233 236 247 259
242 238 242 232 233 243 241 233 231 232 234 240 241 243 241 238 238 240 242 257 258 253 251 250 247 241 239 243 245 242 245 254 269
253 250 244 241 231 230 239 240 234 238 242 240 241 244 246 242 238 240 243 241 253 258 252 247 246 244 242 246 249 251 255 262 272
253 254 251 243 239 236 238 242 239 237 239 231 236 235 245 244 244 242 243 243 242 246 256 251 248 244 243 244 248 251 254 259 267
253 254 255 254 244 237 238 245 241 235 236 221 227 231 240 245 242 243 242 245 248 242 246 251 248 246 242 244 246 252 256 261 266
240 249 255 256 255 243 237 240 249 244 235 232 223 214 229 243 246 243 242 242 246 247 243 246 248 247 245 242 247 252 255 255 261
270 254 249 252 252 249 247 241 248 243 236 232 237 233 242 219 234 240 238 239 241 246 245 244 244 243 246 249 246 248 253 255 256
276 279 274 247 249 254 252 249 247 251 243 243 245 240 234 235 241 243 240 237 239 242 246 246 245 243 245 246 250 253 254 250 255